Regional Weather Roundup
Issued by NWS

Home | Current Version | Previous Version | Graphics & Text | Print | Product List | Glossary On
Versions: 1 2 3 4 5 6 7 8 9 10 11 12 13 14 15 16 17 18 19 20 21 22 23 24 25 26 27 28 29 30 31 32 33 34 35 36 37 38 39 40 41 42 43 44 45 46 47 48 49 50
953
ASUS44 KLIX 301105
RWRLA
LOUISIANA WEATHER ROUNDUP
NATIONAL WEATHER SERVICE NEW ORLEANS LA
600 AM CDT TUE SEP 30 2014

NOTE: "FAIR" INDICATES FEW OR NO CLOUDS BELOW 12,000 FEET WITH NO
      SIGNIFICANT WEATHER AND/OR OBSTRUCTIONS TO VISIBILITY.
      SKY/WX - SKY CONDITION AND SIGNIFICANT WEATHER.
      TMP - AIR TEMPERATURE.    DP   - DEWPOINT TEMPERATURE.
      RH  - RELATIVE HUMIDITY.  PRES - PRESSURE.
      HX  - HEAT INDEX.         WCI  - WIND CHILL INDEX.

*  THESE STATIONS ARE NOT NWS OR FAA STATIONS AND ARE NOT UNDER
   NWS QUALITY CONTROL.

LAZ040-048-061>063-065-066-069-301200-
SOUTHEAST LOUISIANA

CITY           SKY/WX    TMP DP  RH WIND       PRES   REMARKS
N.O. AUDUBON   NOT AVBL
N.O. INTL ARPT PTCLDY    75  71  87 NE5       29.87S
N.O. LAKEFRONT CLEAR     77  73  87 NE9       29.88R
N.O. DOWNTOWN* FAIR      75  70  83 NE6       29.88R
SLIDELL        CLEAR     68  66  93 N3        29.88R
BATON ROUGE    CLEAR     71  69  93 NE3       29.88R
BOOTHVILLE     PTCLDY    77  75  93 CALM      29.87R
BELLE CHASSE   PTCLDY    71  68  90 CALM      29.87R
BOGALUSA*        N/A     69  66  90 CALM      29.91R FOG
GALLIANO*      NOT AVBL
NEW ROADS*     FOG       69  68  98 CALM      29.89R VSB 3/4
GONZALES*      FOG       69  69 100 CALM      29.87S VSB 3/4
HAMMOND*       NOT AVBL
HOUMA*         CLEAR    N/A N/A N/A CALM      29.87S HAZE
PORT FOURCHON* SUNNY     77  73  88 NE5       29.90R

$$

LAZ041-044-053-054-301200-
SOUTHWEST LOUISIANA

CITY           SKY/WX    TMP DP  RH WIND       PRES   REMARKS
LAKE CHARLES   CLEAR     72  70  93 CALM      29.87S FOG
LAFAYETTE      CLEAR     71  71 100 CALM      29.88S
PATTERSON      CLEAR     70  70 100 CALM      29.90R
SALT POINT       N/A     75  73  93 CALM      29.86S
NEW IBERIA     CLEAR     72  71  97 CALM      29.88S
CHENAULT AIRPK NOT AVBL

$$

LAZ027-028-301200-
CENTRAL LOUISIANA

CITY           SKY/WX    TMP DP  RH WIND       PRES   REMARKS
FORT POLK      CLEAR     69  68  96 N1        29.89R
ALEXANDRIA INT MOCLDY    68  67  96 CALM      29.88R FOG
ALEXANDRIA     CLOUDY    67  66  97 CALM      29.90R

$$

LAZ001-002-301200-
NORTHWEST LOUISIANA

CITY           SKY/WX    TMP DP  RH WIND       PRES   REMARKS
SHREVEPORT     PTCLDY    69  65  86 CALM      29.90R
BARKSDALE AFB  PTCLDY    69  64  84 N1        29.91R
DTN SHREVEPORT CLEAR     68  32  26 CALM      29.90S

$$

LAZ014-016-301200-
NORTHEAST LOUISIANA

CITY           SKY/WX    TMP DP  RH WIND       PRES   REMARKS
MONROE         CLEAR     65  63  93 CALM      29.92R
TALLULAH       CLEAR     65  63  93 CALM      29.91R

$$




USA.gov is the U.S. government's official web portal to all federal, state and local government web resources and services.